STARLINK-32240 (60438 NORAD) Tracking and Keplerian Element Data

This shows tracking and keplerian element data for the satellite.

Feedback or suggestion? Click here.




ElementValue
Catalog60438
NameSTARLINK-32240
Epoch Orbit1081
Epoch Day286.72522374
Epoch Year2024
RAAN79.6801
Inclination53.1614
Eccentricity9.83E-05
Argument of Perigee127.9401
Mean Anonmoly232.1688
Mean Motion15.30176011
Decay Rate-9.95E-06
L11 60438U 24144P 24286.72522374 -.00000995 00000+0 -21484-4 0 9997
L22 60438 53.1614 79.6801 0000983 127.9401 232.1688 15.30176011 10813



Live tracking and technical data element details for STARLINK-32240 (NORAD 60438). STARLINK-32240 can be tracked NOW for your location showing map with azimuth and elevation plus other details from your city location.







IsCatalogInMostPopularTable: catalog: 60438, numindb: 7
Update: records affected: 1



GetName: 60438 STARLINK-32240

Hit Count: updated at: Fri, 06 Dec 2024 11:06:54 GMT